Location: Newark
(58.8333°N, 23.5833°E)
Time: 09:58:45
(UTC+00:00)

A-11 Canister half - Pass Details

Date: 21 November 2019
Orbit: 1515 x 1685 km, 47.2° (Epoch: 08 December)

Event Time Altitude Azimuth Distance (km) Brightness Sun altitude
Rises 19:23:59 0° 263° (W) 4,929 12.2 -40.9°
Reaches altitude 10° 19:27:22 10° 257° (WSW) 3,948 11.5 -41.2°
Enters shadow 19:33:33 34° 227° (SW) 2,520 10.0 -41.9°
Maximum altitude 19:36:34 41° 192° (SSW) 2,280 - -42.2°
Drops below altitude 10° 19:45:42 10° 127° (SE) 3,915 - -43.1°
Sets 19:49:02 0° 121° (ESE) 4,884 - -43.4°
